[[{"header":{"parameterUnit":"m.s-1","parameterCategory":1,"la1":30.2991,"la2":30.254,"lo1":-89.0895,"lo2":-89.0444,"dy":0.0017,"dx":0.0017,"nx":28,"ny":28,"refTime":"2024-08-23T21:00:00:Z","depth":0,"parameterNumber":2,"parameterNumberName":"U-component_of_WINDS"},"data":[0,0,0,0,0,0,0,0,0,0,0,0,0,0,0,0,0,0,0,0,0,0,0,0,0,0,0,0,0,0,0,0,0,0,0,0,0,0,0,0,0,0,0,0,0,0,0,0,0,0,0,0,0,0,0,0,0,0,-5.4071,-5.4073,0,-5.4204,-5.4206,-5.4207,-5.4158,-5.4155,-5.4152,-5.4149,-5.4288,-5.4295,-5.4301,0,0,0,0,0,0,0,0,0,0,0,0,0,-5.3777,-5.3783,-5.4071,-5.4073,-5.4074,-5.4204,-5.4206,-5.4208,-5.4158,-5.4155,-5.4151,-5.4148,-5.4286,-5.4294,-5.4302,0,0,0,0,0,0,0,0,0,0,0,0,0,-5.3907,-5.3785,-5.4071,-5.4065,-5.4066,-5.4204,-5.4206,-5.4208,-5.4159,-5.4155,-5.415,-5.4146,-5.4283,-5.4293,-5.4303,-5.4454,0,0,-5.4333,-5.4337,0,0,0,0,0,0,0,0,-5.39,-5.3918,-5.4065,-5.4066,-5.4067,-5.416,-5.4153,-5.4291,-5.416,-5.4124,-5.4149,-5.4144,-5.4249,-5.4262,-5.4297,-5.4461,-5.4467,-5.4333,-5.4339,-5.4344,-5.4346,0,0,0,0,0,0,0,-5.3891,-5.3912,-5.4124,-5.4067,-5.4068,-5.4057,-5.4071,-5.4179,-5.4211,-5.4127,-5.4124,-5.414,-5.4249,-5.4287,-5.43,-5.4469,-5.4333,-5.4342,-5.4348,-5.4352,-5.4766,-5.4771,0,0,0,0,0,0,-5.3881,-5.3905,-5.412,-5.4128,-5.3971,-5.4066,-5.4081,-5.4135,-5.4209,-5.4216,-5.4144,-5.4137,-5.4273,-5.4288,-5.4304,-5.4488,-5.4344,-5.4353,-5.4358,-5.4761,-5.4767,-5.4773,0,0,0,0,0,0,-5.3875,-5.3901,-5.4114,-5.4016,-5.4042,-5.4076,-5.4137,-5.414,-5.4178,-5.4222,-5.4228,-5.4177,-5.427,-5.4291,-5.4418,-5.4492,-5.4357,-5.4366,-5.4755,-5.4763,-5.477,-5.4857,0,0,0,0,0,0,-5.3867,-5.3899,-5.3956,-5.4017,-5.4047,-5.4225,-5.4141,-5.4146,-5.4195,-5.4187,-5.4254,-5.4261,-5.4268,-5.4403,-5.4427,-5.4504,-5.4374,-5.4749,-5.4759,-5.4768,-5.4847,-5.4867,-5.4883,0,0,0,0,0,-5.3856,-5.3975,-5.3959,-5.3985,-5.4119,-5.4229,-5.4246,-5.4251,-5.4201,-5.4259,-5.4288,-5.4259,-5.448,-5.4417,-5.4443,-5.4524,-5.4744,-5.4756,-5.4767,-5.484,-5.4863,-5.4882,0,0,0,0,0,0,-5.3922,-5.3983,-5.3966,-5.4108,-5.4164,-5.422,-5.4294,-5.4275,-5.4347,-5.4337,-5.434,-5.4356,-5.4487,-5.4518,-5.4446,-5.4675,-5.4605,-5.4622,-5.4651,-5.4673,-5.469,-5.4681,-5.4382,0,0,0,0,0,-5.3953,-5.4036,-5.4085,-5.4206,-5.4234,-5.426,-5.4308,-5.4306,-5.4364,-5.4388,-5.4426,-5.4484,-5.4567,-5.4621,-5.47,-5.4851,-5.4866,-5.492,-5.4937,-5.4952,-5.4967,-5.5052,-5.5077,-5.4811,-5.4811,-5.4811,0,0,-5.4018,-5.4062,-5.4114,-5.422,-5.4263,-5.435,-5.428,-5.4375,-5.444,-5.4403,-5.4525,-5.4555,-5.4621,-5.4761,-5.4825,-5.4791,-5.5044,-5.4966,-5.4977,-5.4985,-5.5066,-5.5091,-5.5114,-5.4819,-5.4817,-5.4816,0,0,-5.4182,-5.4222,-5.4328,-5.4373,-5.4438,-5.4454,-5.448,-5.454,-5.4559,-5.4681,-5.4656,-5.4734,-5.4876,-5.4924,-5.4967,-5.515,-5.5128,-5.5176,-5.5269,-5.5351,-5.5372,-5.5391,-5.5458,-5.5482,-5.5191,-5.5191,-5.5191,0,-5.4255,-5.4384,-5.4385,-5.4483,-5.4531,-5.45,-5.4608,-5.4652,-5.474,-5.4775,-5.4735,-5.4914,-5.4956,-5.5108,-5.5153,-5.5188,-5.5219,-5.5169,-5.5369,-5.5388,-5.5405,-5.5469,-5.5494,-5.5197,-5.5196,-5.5195,-5.5195,0,-5.4471,-5.4562,-5.4639,-5.4725,-5.4782,-5.4884,-5.4902,-5.496,-5.4954,-5.4974,-5.5101,-5.515,-5.5239,-5.5275,-5.527,-5.5427,-5.5404,-5.5367,-5.5296,-5.5436,-5.5496,-5.5521,-5.5205,-5.5203,-5.5201,-5.52,0,0,-5.4681,-5.4766,-5.4795,-5.4834,-5.4905,-5.4975,-5.5077,-5.5163,-5.5213,-5.5276,-5.5362,-5.5483,-5.545,-5.5499,-5.5499,-5.5571,-5.5716,-5.5525,-5.5527,-5.556,-5.5895,-5.5924,-5.5952,-5.57,-5.5705,-5.5709,-5.589,0,-5.4851,-5.5028,-5.5033,-5.5196,-5.5281,-5.5253,-5.5342,-5.5396,-5.5418,-5.5494,-5.5519,-5.5606,-5.5553,-5.5583,-5.5653,-5.5683,-5.5783,-5.567,-5.5783,-5.5787,-5.5769,-5.5983,-5.6014,-5.6183,-5.5913,-5.5917,-5.592,0,-5.5073,-5.5143,-5.5314,-5.5374,-5.541,-5.549,-5.557,-5.5642,-5.5703,-5.5715,-5.577,-5.576,-5.5866,-5.5791,-5.5937,-5.586,-5.5907,-5.5929,-5.5935,-5.5948,-5.5863,-5.6003,-5.6237,-5.6263,-5.5957,-5.5954,-5.5952,0,-5.5211,-5.5347,-5.5468,-5.5502,-5.5575,-5.5632,-5.5665,-5.5721,-5.5774,-5.5844,-5.5878,-5.596,-5.6005,-5.607,-5.6083,-5.6027,-5.6231,-5.6156,-5.6245,-5.6245,-5.6291,-5.6288,-5.6537,-5.6318,-5.6317,-5.6317,-5.6316,0,-5.5402,-5.5509,-5.5531,-5.5606,-5.5725,-5.5729,-5.5847,-5.5876,-5.5927,-5.6008,-5.5989,-5.6066,-5.6077,-5.6157,-5.6168,-5.6289,-5.6309,-5.6323,-5.6325,-5.6326,-5.6325,-5.6358,-5.6347,-5.6324,-5.6322,-5.6321,-5.632,0,-5.5577,-5.5596,-5.5726,-5.5784,-5.5801,-5.5887,-5.5937,-5.6009,-5.6029,-5.6132,-5.6156,-5.6189,-5.6282,-5.6301,-5.6411,-5.6419,-5.6564,-5.6553,-5.6543,-5.6543,-5.6631,-5.6623,-5.6911,-5.695,-5.6704,-5.6706,-5.6708,0,-5.5698,-5.578,-5.5846,-5.5899,-5.5935,-5.6019,-5.6072,-5.608,-5.6136,-5.6213,-5.6276,-5.6367,-5.644,-5.6591,-5.6625,-5.671,-5.6703,-5.6798,-5.6716,-5.6715,-5.6707,-5.6703,-5.6712,-5.6814,-5.6817,-5.6819,-5.6821,0,-5.5912,-5.5918,-5.5994,-5.6075,-5.6139,-5.6203,-5.6264,-5.6308,-5.6324,-5.6389,-5.6483,-5.654,-5.6653,-5.6744,-5.6829,-5.6865,-5.6847,-5.6846,-5.6872,-5.6874,-5.6866,-5.6874,-5.6588,-5.684,-5.6838,-5.6837,-5.6836,-5.6835,-5.6065,-5.6137,-5.6196,-5.6282,-5.6329,-5.6386,-5.6458,-5.6487,-5.6565,-5.6657,-5.6657,-5.6761,-5.6822,-5.6935,-5.6976,-5.7058,-5.7029,-5.7065,-5.7075,-5.7084,-5.7093,-5.6851,-5.7074,-5.7073,-5.7073,-5.7072,-5.7072,0,-5.628,-5.6317,-5.6396,-5.6482,-5.6551,-5.6526,-5.6592,-5.6652,-5.6743,-5.6801,-5.6873,-5.6983,-5.7072,-5.7114,-5.7202,-5.726,-5.7255,-5.7284,-5.728,-5.7289,-5.7113,-5.7084,-5.7287,-5.7287,-5.7287,-5.7287,-5.7287,-5.7287,-5.64,-5.6521,-5.6534,-5.6678,-5.6714,-5.6815,-5.6855,-5.6909,-5.6955,-5.7079,-5.7152,-5.7178,-5.723,-5.7322,-5.7403,-5.7413,-5.7448,-5.7481,-5.7488,-5.7323,-5.7301,-5.7281,-5.7253,-5.7488,-5.7488,-5.7657,-5.7658,-5.766]},{"header":{"parameterUnit":"m.s-1","parameterCategory":1,"la1":30.2991,"la2":30.254,"lo1":-89.0895,"lo2":-89.0444,"dy":0.0017,"dx":0.0017,"nx":28,"ny":28,"refTime":"2024-08-23T21:00:00:Z","depth":0,"parameterNumber":3,"parameterNumberName":"V-component_of_WINDS"},"data":[0,0,0,0,0,0,0,0,0,0,0,0,0,0,0,0,0,0,0,0,0,0,0,0,0,0,0,0,0,0,0,0,0,0,0,0,0,0,0,0,0,0,0,0,0,0,0,0,0,0,0,0,0,0,0,0,0,0,-2.5999,-2.5998,0,-2.5938,-2.5938,-2.5937,-2.5841,-2.584,-2.5838,-2.5836,-2.5775,-2.5775,-2.5775,0,0,0,0,0,0,0,0,0,0,0,0,0,-2.6033,-2.6032,-2.5999,-2.5998,-2.5997,-2.5938,-2.5938,-2.5937,-2.5842,-2.584,-2.5838,-2.5836,-2.5775,-2.5775,-2.5775,0,0,0,0,0,0,0,0,0,0,0,0,0,-2.6,-2.6032,-2.5999,-2.5943,-2.5937,-2.5939,-2.5938,-2.5937,-2.5842,-2.584,-2.5837,-2.5835,-2.5775,-2.5775,-2.5775,-2.5827,0,0,-2.5775,-2.5775,0,0,0,0,0,0,0,0,-2.6002,-2.5999,-2.5952,-2.5947,-2.594,-2.5895,-2.5927,-2.59,-2.5843,-2.5878,-2.5836,-2.5833,-2.5817,-2.5814,-2.5808,-2.5824,-2.5822,-2.5775,-2.5775,-2.5775,-2.5775,0,0,0,0,0,0,0,-2.6004,-2.6001,-2.5975,-2.5951,-2.5944,-2.5921,-2.5913,-2.5921,-2.5863,-2.5875,-2.5868,-2.5862,-2.5814,-2.5808,-2.5806,-2.5821,-2.5775,-2.5775,-2.5775,-2.5775,-2.5876,-2.5879,0,0,0,0,0,0,-2.6015,-2.6003,-2.5977,-2.5973,-2.5965,-2.5922,-2.5914,-2.5912,-2.5863,-2.5853,-2.5864,-2.5858,-2.581,-2.5806,-2.5803,-2.5861,-2.5775,-2.5775,-2.5775,-2.5874,-2.5877,-2.588,0,0,0,0,0,0,-2.6016,-2.6013,-2.5979,-2.5986,-2.598,-2.5924,-2.5923,-2.5912,-2.5907,-2.5855,-2.5844,-2.587,-2.5807,-2.5803,-2.5822,-2.5857,-2.5775,-2.5775,-2.587,-2.5875,-2.5878,-2.5976,0,0,0,0,0,0,-2.6017,-2.6014,-2.6033,-2.5987,-2.598,-2.5999,-2.5925,-2.5913,-2.5907,-2.5898,-2.5857,-2.5847,-2.5805,-2.5822,-2.5822,-2.5856,-2.5775,-2.5867,-2.5872,-2.5877,-2.597,-2.5983,-2.5995,0,0,0,0,0,-2.6019,-2.6063,-2.6035,-2.6032,-2.6003,-2.6001,-2.5997,-2.5947,-2.591,-2.5929,-2.5895,-2.5849,-2.5853,-2.5825,-2.5824,-2.5858,-2.5864,-2.5871,-2.5877,-2.5964,-2.5981,-2.5995,0,0,0,0,0,0,-2.6115,-2.6056,-2.6024,-2.6055,-2.6034,-2.5985,-2.6007,-2.5966,-2.5955,-2.5947,-2.5886,-2.5878,-2.5904,-2.5883,-2.5852,-2.5906,-2.5852,-2.5858,-2.5919,-2.5934,-2.5946,-2.5951,-2.5775,0,0,0,0,0,-2.614,-2.6143,-2.6092,-2.6124,-2.6115,-2.6064,-2.6061,-2.6024,-2.6,-2.5991,-2.5958,-2.5937,-2.5933,-2.5932,-2.5926,-2.5966,-2.5956,-2.5989,-2.6002,-2.6012,-2.6018,-2.6038,-2.6052,-2.59,-2.59,-2.5899,0,0,-2.6192,-2.616,-2.6166,-2.6143,-2.6122,-2.6128,-2.6057,-2.6065,-2.6069,-2.5992,-2.6007,-2.5983,-2.5955,-2.5985,-2.5996,-2.5967,-2.6058,-2.602,-2.6029,-2.6029,-2.6046,-2.606,-2.6073,-2.5904,-2.5903,-2.5902,0,0,-2.6288,-2.6264,-2.6289,-2.627,-2.6239,-2.6204,-2.621,-2.6167,-2.6148,-2.6163,-2.6106,-2.6109,-2.6104,-2.6086,-2.6077,-2.6167,-2.6124,-2.6166,-2.6232,-2.6252,-2.6264,-2.6275,-2.6307,-2.632,-2.6173,-2.6173,-2.6173,0,-2.6356,-2.6362,-2.6307,-2.6319,-2.6311,-2.6241,-2.6266,-2.625,-2.6219,-2.6215,-2.6184,-2.6176,-2.6152,-2.6177,-2.6199,-2.6193,-2.6199,-2.6171,-2.6267,-2.6277,-2.6286,-2.6316,-2.6329,-2.6178,-2.6178,-2.6177,-2.6177,0,-2.6447,-2.6452,-2.6475,-2.6447,-2.6441,-2.646,-2.6408,-2.6409,-2.6373,-2.6342,-2.6357,-2.6326,-2.6313,-2.6316,-2.628,-2.6335,-2.6319,-2.6278,-2.6223,-2.6307,-2.6334,-2.6345,-2.6186,-2.6184,-2.6182,-2.6181,0,0,-2.6603,-2.6545,-2.6554,-2.6541,-2.6502,-2.6504,-2.652,-2.6506,-2.6508,-2.6489,-2.6501,-2.6499,-2.6461,-2.645,-2.6412,-2.643,-2.6503,-2.6386,-2.6385,-2.641,-2.6562,-2.6594,-2.6608,-2.6474,-2.6476,-2.6478,-2.6565,0,-2.6693,-2.6715,-2.6667,-2.6701,-2.6705,-2.6639,-2.6652,-2.663,-2.6601,-2.66,-2.6568,-2.6568,-2.6517,-2.651,-2.6525,-2.6492,-2.6533,-2.6484,-2.6485,-2.6486,-2.6495,-2.6622,-2.6656,-2.674,-2.6575,-2.6577,-2.6578,0,-2.68,-2.6786,-2.6822,-2.6781,-2.6781,-2.6794,-2.6777,-2.6777,-2.6751,-2.6728,-2.6716,-2.6672,-2.6684,-2.6631,-2.6647,-2.6615,-2.6612,-2.6596,-2.6597,-2.6596,-2.6538,-2.6626,-2.6765,-2.6778,-2.6595,-2.6593,-2.6592,0,-2.6911,-2.6902,-2.6922,-2.6912,-2.6865,-2.6875,-2.6856,-2.6827,-2.6822,-2.6808,-2.6804,-2.6792,-2.6785,-2.6777,-2.673,-2.6695,-2.6752,-2.6694,-2.6734,-2.6736,-2.675,-2.675,-2.6892,-2.6747,-2.6747,-2.6747,-2.6747,0,-2.7017,-2.7041,-2.6971,-2.6984,-2.7009,-2.6952,-2.6979,-2.6953,-2.6928,-2.6934,-2.6876,-2.6883,-2.6821,-2.6821,-2.6785,-2.6804,-2.6801,-2.6784,-2.6774,-2.679,-2.6792,-2.6788,-2.6781,-2.675,-2.6749,-2.6749,-2.6748,0,-2.7146,-2.71,-2.7117,-2.7071,-2.706,-2.7081,-2.7041,-2.705,-2.7017,-2.7026,-2.7025,-2.6974,-2.6971,-2.6923,-2.6911,-2.6886,-2.6921,-2.69,-2.693,-2.6924,-2.6966,-2.6963,-2.7111,-2.7128,-2.6972,-2.6974,-2.6975,0,-2.7216,-2.7233,-2.7189,-2.7189,-2.7172,-2.7173,-2.7168,-2.7113,-2.7109,-2.708,-2.7094,-2.7087,-2.7078,-2.7077,-2.7039,-2.7029,-2.7007,-2.706,-2.7006,-2.7021,-2.7009,-2.7009,-2.7011,-2.7072,-2.7074,-2.7075,-2.7077,0,-2.7347,-2.7323,-2.7317,-2.7304,-2.7299,-2.7286,-2.727,-2.7273,-2.7212,-2.7212,-2.7209,-2.7202,-2.7189,-2.7183,-2.7166,-2.7146,-2.7102,-2.7094,-2.7103,-2.7119,-2.7136,-2.7128,-2.6962,-2.7091,-2.709,-2.7088,-2.7088,-2.7087,-2.7449,-2.7461,-2.7432,-2.7428,-2.7409,-2.7395,-2.7402,-2.737,-2.7366,-2.7351,-2.7319,-2.7321,-2.7293,-2.7266,-2.725,-2.7251,-2.7224,-2.7237,-2.724,-2.7244,-2.7253,-2.7136,-2.7247,-2.7247,-2.7246,-2.7246,-2.7246,0,-2.7577,-2.7554,-2.7551,-2.7529,-2.7526,-2.7484,-2.7464,-2.7464,-2.7466,-2.7445,-2.7437,-2.7434,-2.7427,-2.7388,-2.7378,-2.7386,-2.7365,-2.7385,-2.7384,-2.7381,-2.7277,-2.7271,-2.7402,-2.7402,-2.7402,-2.7402,-2.7402,-2.7402,-2.7643,-2.7662,-2.7635,-2.7644,-2.7621,-2.7623,-2.7615,-2.7601,-2.7584,-2.7582,-2.7577,-2.7551,-2.7523,-2.7509,-2.7502,-2.749,-2.7489,-2.7516,-2.7498,-2.7403,-2.7388,-2.7373,-2.7367,-2.7516,-2.7516,-2.7601,-2.7602,-2.7603]}]]